Location: Arcones
(41.1182°N, 3.7238°W)
Time: 20:16:42
(UTC+00:00)

Cosmos 2058 Rocket - Pass Details

Date: 16 March 2026
Orbit: 604 x 632 km, 82.5° (Epoch: 21 April)

Event Time Altitude Azimuth Distance (km) Brightness Sun altitude
Rises 05:35:07 0° 157° (SSE) 2,885 6.7 -10.3°
Reaches altitude 10° 05:37:37 10° 144° (SE) 1,989 6.1 -9.8°
Maximum altitude 05:41:14 26° 89° (E) 1,253 5.7 -9.1°
Drops below altitude 10° 05:44:55 10° 33° (NNE) 2,015 6.3 -8.4°
Sets 05:47:27 0° 21° (NNE) 2,930 6.9 -7.9°
